Location: ?ejkovice
(49.0137°N, 14.3821°E)
Time: 18:07:32
(UTC+00:00)

ATLAS 2AS CENTAUR R/B - Pass Details

Date: 23 May 2024
Orbit: 1017 x 1194 km, 63.7° (Epoch: 12 June)

Event Time Altitude Azimuth Distance (km) Brightness Sun altitude
Rises 01:31:41 0° 317° (NW) 3,915 5.8 -12.5°
Reaches altitude 10° 01:34:26 10° 320° (NW) 2,929 5.2 -12.3°
Maximum altitude 01:41:20 71° 45° (NE) 1,110 3.0 -11.6°
Drops below altitude 10° 01:47:57 10° 129° (SE) 2,817 4.9 -10.9°
Sets 01:50:32 0° 132° (SE) 3,755 5.6 -10.6°
